C/2013 R1 ( Lovejoy )

Japanese version
Home page
Updated on November 1, 2014

---------------------------------------------------------------------

* Profile

Discovery Date September 7, 2013
Magnitude 14.4 mag
Discoverer Terry Lovejoy (Thornlands, Qld., Australia)

* Pictures

* Orbital Elements

Epoch 2013 Dec. 14.0 TT = JDT 2456640.5
T 2013 Dec. 22.73334 TT                                 MPC
q   0.8118220            (2000.0)            P               Q
z  +0.0019647      Peri.   67.16670     -0.25259623     -0.46477147
                   Node    70.71115     +0.12869385     -0.88542336
e   0.9984050      Incl.   64.04092     +0.95897499     -0.00359861
From 3546 observations 2013 Sept. 7-2014 Sept. 14, mean residual 0".6.
     Nongravitational parameters A1 = +0.53, A2 = -0.3262.

* Finding Charts

* Magnitudes Graph

        m1 = 6.7 + 5 log d + 15.0 log r  [  , 0]  (             - 2013 Dec. 22)
        m1 = 6.3 + 5 log d + 10.0 log r  [ 0,72]  (2013 Dec. 22 - 2014 Mar.  4)
        m1 = 4.5 + 5 log d + 20.0 log r  [72,  ]  (2014 Mar.  4 -             )

---------------------------------------------------------------------

The orbital elements are published on M.P.E.C. 2014-U124.
The charts are made with StellaNavigator Ver.8 (AstroArts).
The magnitudes graphs are made with Comet for Windows.

---------------------------------------------------------------------

Copyright(C) Seiichi Yoshida (comet@aerith.net). All rights reserved.